Simultaneous Nadir Overpasses (SNOs) Predictions

Prediction of SNOs between AQUA and METOP-B Satellite Orbit:

Table of predicted SNOs for the next 14.0 days since TLE Epoch: 7/29/2023
Index Date (AQUA) Time (AQUA) Lat,Lon (AQUA) SZA (AQUA ) Date (METOP-B) Time (METOP-B) Lat,Lon (METOP-B) SZA (METOP-B ) Distance(km) Time Diff (sec)
1 07/29/2023 14:52:49 74.67, -47.22 55.96 07/29/2023 14:51:55 74.65, -47.14 55.94 3.23 54
2 07/29/2023 15:42:13 -74.69, 120.38 124.02 07/29/2023 15:42:36 -74.68, 120.27 124.02 3.15 23
3 08/01/2023 08:45:14 74.68, 44.68 56.64 08/01/2023 08:44:55 74.68, 44.68 56.64 0.35 19
4 08/01/2023 09:34:39 -74.75,-147.84 123.29 08/01/2023 09:35:35 -74.76,-147.77 123.28 2.59 56
5 08/04/2023 01:48:13 -74.68, -31.03 122.67 08/04/2023 01:47:16 -74.67, -30.94 122.68 2.94 57
6 08/04/2023 02:37:38 74.69, 136.59 57.35 08/04/2023 02:37:55 74.70, 136.49 57.37 3.54 17
7 08/06/2023 19:40:36 -74.68, 60.91 121.93 08/06/2023 19:40:16 -74.70, 60.88 121.91 2.43 20
8 08/06/2023 20:30:02 74.74,-131.61 58.15 08/06/2023 20:30:55 74.73,-131.69 58.14 2.41 53
9 08/09/2023 12:43:33 74.67, -14.79 58.82 08/09/2023 12:42:34 74.69, -14.74 58.85 2.36 59
10 08/09/2023 13:32:58 -74.72, 152.73 121.11 08/09/2023 13:33:15 -74.73, 152.71 121.11 0.89 17



Historial Predications of SNOs between AQUA and METOP-B
